Regional Weather Roundup
Issued by NWS

Home | Current Version | Previous Version | Graphics & Text | Print | Product List | Glossary On
Versions: 1 2 3 4 5 6 7 8 9 10 11 12 13 14 15 16 17 18 19 20 21 22 23 24 25
000
ASUS45 KCYS 240710
RWRWY

WYOMING REGIONAL WEATHER ROUNDUP
NATIONAL WEATHER SERVICE CHEYENNE WY
100 AM MDT FRI OCT 24 2014

NOTE:  "FAIR" INDICATES FEW OR NO CLOUDS BELOW 12,000 FEET
WITH NO SIGNIFICANT WEATHER AND/OR OBSTRUCTIONS TO VISIBILITY.

WYZ001-240800-
YELLOWSTONE NATIONAL PARK

CITY           SKY/WX    TMP DP  RH WIND       PRES   REMARKS
LK YELLOWSTONE   N/A     39  29  67 VRB5      30.19
W YELLOWSTONE  NOT AVBL

$$
WYZ002>013-054>058-071-098>099-240800-
NORTHERN WYOMING

CITY           SKY/WX    TMP DP  RH WIND       PRES   REMARKS
JACKSON        CLOUDY    48  27  43 CALM      30.16S
CODY           CLOUDY    57  27  30 SE8       29.98
GREYBULL       CLOUDY    47  27  45 S6        29.96R
WORLAND        MOCLDY    39  26  59 CALM      29.96S
SHERIDAN       MOCLDY    44  30  57 SW5       29.93R
BUFFALO        MOCLDY    50  25  37 W8        29.98R
GILLETTE       CLOUDY    48  27  44 SW8       29.94R
HULETT         FAIR      46  30  53 S3        29.95
NEWCASTLE      FAIR      45  28  53 CALM      29.97

$$
WYZ014>020-022>026-101>103-240800-
CENTRAL WYOMING

CITY           SKY/WX    TMP DP  RH WIND       PRES   REMARKS
BIG PINEY      MOCLDY    34  23  64 E5        30.20S WCI  30
PINEDALE       PTSUNNY   32  28  86 N5        30.21  WCI  27
DUBOIS         PTSUNNY   50  19  29 NW18G26   30.12S
LANDER         CLOUDY    52  23  32 CALM      30.02S
RIVERTON       MOCLDY    50  23  34 CALM      30.05R
CASPER         MOCLDY    52  28  39 SW15      30.04S
DOUGLAS        CLOUDY    47  28  47 CALM      30.04R

$$
WYZ021-027>030-104>119-240800-
SOUTHERN WYOMING

CITY           SKY/WX    TMP DP  RH WIND       PRES   REMARKS
EVANSTON       MOCLDY    51  23  33 SW13      30.20S
KEMMERER       CLOUDY    41  27  56 CALM      30.21S
FORT BRIDGER   FAIR      51  23  33 SW9       30.22S
ROCK SPRINGS   MOCLDY    46  25  43 CALM      30.19S
DIXON          FAIR      43  32  65 CALM      30.26S
RAWLINS        MOCLDY    51  31  46 SW14      30.19R
SARATOGA       FAIR      43  30  61 S8        30.22F
LARAMIE        CLOUDY    52  25  35 SW17      30.20R
CHEYENNE       CLOUDY    52  30  43 W13       30.15R
TORRINGTON     CLOUDY    54  31  41 S3        30.01S
PINE BLUFFS    FAIR      46  36  66 CALM      30.11S

$$



USA.gov is the U.S. government's official web portal to all federal, state and local government web resources and services.